Flag for Reunion (French) Weather past 2 weeks in Saint-Denis, Reunion (French)

Now
77 °F

Sprinkles. Broken clouds.


Feels Like: 78 °F
Forecast: 77 / 84 °F
Wind: 18 mph from Southeast

Location: Saint-Denis / Gillot

Current Time: Mar 6, 2015 at 8:04:30 AM

Latest Report: Mar 6, 2015 at 7:00 AM


Visibility: N/A

Pressure: 29.92 "Hg

Humidity: 89%

Dew point: 73 °F

Location of Saint-DenisLocation

Historic Weather in Saint-Denis — Graph

°F

Saint-Denis temperature yesterday

Maximum temperature yesterday: 88 °F (at 11:30 AM)
Minimum temperature yesterday: 79 °F (at 2:30 AM)
Average temperature yesterday: 82 °F

Past Weeks' High & Low Weather Summary

 TemperatureHumidityPressure
High90 °F (Mar 4, 12:30 PM)100% (Feb 20, 8:00 AM)29.98 "Hg (Feb 20, 8:00 AM)
Low72 °F (Feb 28, 6:30 AM)55% (Feb 28, 5:30 PM)29.71 "Hg (Feb 27, 3:00 PM)
Average80 °F76%29.84 "Hg
* Reported Feb 19 6:30 AM — Mar 6 6:30 AM, Saint-Denis, Weather by CustomWeather, © 2015

Note: Actual official high and low records may vary slightly from our data, if they occured in-between our weather recording intervals... More about our weather records

Advertising

Saint-Denis weather history for previous 24 hours

 ConditionsComfort  
Time TempWeatherWind HumidityBarometerVisibility
6:30 AM
Fri, Mar 6
79 °FScattered showers. Broken clouds.20 mph84%29.92 "HgN/A
6:00 AM79 °FSprinkles. Broken clouds.18 mph89%29.92 "HgN/A
5:30 AM79 °FPassing clouds.17 mph89%29.89 "HgN/A
5:00 AM79 °FPassing clouds.22 mph84%29.89 "HgN/A
4:30 AM79 °FClear.22 mph84%29.89 "HgN/A
4:00 AM81 °FClear.20 mph79%29.89 "HgN/A
3:30 AM79 °FClear.17 mph84%29.89 "HgN/A
3:00 AM79 °FClear.16 mph84%29.89 "HgN/A
2:30 AM79 °FClear.15 mph79%29.92 "HgN/A
2:00 AM79 °FClear.14 mph84%29.92 "HgN/A
1:30 AM79 °FClear.15 mph79%29.92 "HgN/A
12:30 AM79 °FLight rain. Passing clouds.15 mph79%29.95 "HgN/A
12:00 AM79 °FLight rain. Partly cloudy.16 mph79%29.95 "HgN/A
11:30 PM
Thu, Mar 5
81 °FWarm.16 mph79%29.95 "HgN/A
11:00 PM79 °FWarm.14 mph84%29.98 "HgN/A
10:30 PM79 °FPartly cloudy.14 mph84%29.98 "HgN/A
10:00 PM81 °FPassing clouds.16 mph84%29.98 "HgN/A
9:30 PM81 °FWarm.15 mph79%29.98 "HgN/A
9:00 PM81 °FClear.18 mph84%29.95 "HgN/A
8:30 PM81 °FClear.17 mph84%29.95 "HgN/A
8:00 PM81 °FClear.17 mph79%29.95 "HgN/A
7:30 PM79 °FClear.13 mph84%29.92 "HgN/A
7:00 PM79 °FClear.10 mph79%29.92 "HgN/A
6:30 PM81 °FMostly cloudy.10 mph74%29.89 "HgN/A
6:00 PM81 °FPassing clouds.12 mph74%29.92 "HgN/A
5:30 PM81 °FBroken clouds.9 mph79%29.92 "HgN/A
5:00 PM81 °FPartly sunny.9 mph84%29.92 "HgN/A
4:30 PM81 °FPartly sunny.6 mph84%29.89 "HgN/A
4:00 PM81 °FRain showers. Broken clouds.14 mph84%29.89 "Hg4 mi
3:30 PM84 °FPartly sunny.12 mph74%29.89 "HgN/A
3:00 PM84 °FPartly sunny.13 mph74%29.89 "HgN/A
2:30 PM84 °FPartly sunny.13 mph74%29.89 "HgN/A
2:00 PM81 °FPartly sunny.9 mph89%29.89 "HgN/A
1:30 PM81 °FRain showers. Broken clouds.22 mph79%29.92 "Hg3 mi
1:00 PM86 °FScattered showers. Partly sunny.17 mph70%29.92 "HgN/A
12:30 PM86 °FScattered showers. Partly sunny.17 mph70%29.92 "HgN/A
12:00 PM88 °FScattered showers. Partly sunny.18 mph66%29.95 "HgN/A
11:30 AM88 °FBroken clouds.21 mph62%29.95 "HgN/A
11:00 AM86 °FScattered clouds.17 mph66%29.95 "HgN/A
10:30 AM82 °FScattered clouds.21 mph74%29.95 "HgN/A
10:00 AM84 °FScattered clouds.22 mph70%29.95 "HgN/A
9:30 AM84 °FScattered clouds.18 mph70%29.95 "HgN/A
9:00 AM84 °FScattered clouds.18 mph74%29.95 "HgN/A
8:30 AM82 °FScattered clouds.15 mph74%29.95 "HgN/A
Weather by CustomWeather, © 2015

See weather overviewHow to use our weather pages